Regional Weather Roundup
Issued by NWS

Home | Current Version | Previous Version | Graphics & Text | Print | Product List | Glossary On
Versions: 1 2 3 4 5 6 7 8 9 10 11 12 13 14 15 16 17 18 19 20 21 22 23 24 25 26 27 28 29 30 31 32 33 34 35 36 37 38 39 40 41 42 43 44 45 46 47 48 49 50
000
ASUS45 KABQ 291001
RWRNM
NEW MEXICO REGIONAL WEATHER ROUNDUP
NATIONAL WEATHER SERVICE ALBUQUERQUE NM
400 AM MDT SAT AUG 29 2015

NOTE: "FAIR" MEANS FEW OR NO CLOUDS BELOW 12,000 FEET AGL WITH NO
       SIGNIFICANT WEATHER OR OBSTRUCTIONS TO VISION.

      THIS PRODUCT IS RELEASED AS TWO VERSIONS.  ONE VERSION NEAR
      THE TOP OF THE HOUR CONTAINING PRELIMINARY DATA FROM ALBUQUERQUE
      AND OTHER STATIONS.  A FINAL VERSION WITH ADDITIONAL DATA IS
      ISSUED ABOUT 10 MINUTES AFTER THE HOUR.

NMZ501-503-504-510>518-291100-
NORTHWEST PLATEAU/NORTHCENTRAL MOUNTAINS

CITY           SKY/WX    TMP DP  RH WIND       PRES   REMARKS
FARMINGTON     CLEAR     65  46  50 E9        30.22R
SANTA FE       LGT RAIN  60  54  80 CALM      30.34F
TAOS           PTCLDY    57  37  47 NE5       30.40F

$$
NMZ402-403-502-505>509-291100-
WESTCENTRAL MOUNTAINS/SOUTHWEST MOUNTAINS

CITY           SKY/WX    TMP DP  RH WIND       PRES   REMARKS
GALLUP         FAIR      54  43  66 E5        30.31R
GRANTS         FAIR      60  51  70 S9        30.34S
SILVER CITY      N/A     70  55  60 N7        30.23R

$$
NMZ407-409-411-412-291100-
SOUTHERN DESERTS

CITY           SKY/WX    TMP DP  RH WIND       PRES   REMARKS
DEMING         FAIR      72  57  59 E10       30.14F
HOLLOMAN AFB   PTCLDY    69  57  66 NW10      30.15S
ALAMOGORDO     PTCLDY    66  54  63 W5        30.17S
T OR C         FAIR      68  57  68 NE5       30.22S

$$
NMZ519>523-291100-
CENTRAL VALLEYS/CENTRAL HIGHLANDS

CITY           SKY/WX    TMP DP  RH WIND       PRES   REMARKS
ALBUQUERQUE    MOCLDY    72  49  44 E16       30.26S
DOUBLE EAGLE   PTCLDY    60  50  69 SW6       30.30S
MORIARTY ARPT  FAIR      50  47  89 NE5       30.36R
CLINES CORNERS CLEAR     51  48  89 NW7       30.37S
BELEN          FAIR      66  52  61 S6        30.26R
SOCORRO        NOT AVBL

$$
NMZ524>526-539-540-291100-
SOUTHCENTRAL MOUNTAINS

CITY           SKY/WX    TMP DP  RH WIND       PRES   REMARKS
RUIDOSO        PTCLDY    55  54  94 MISG      30.37F

$$
NMZ527>531-291100-
NORTHEAST HIGHLANDS/NORTHEAST PLAINS

CITY           SKY/WX    TMP DP  RH WIND       PRES   REMARKS
LAS VEGAS      CLEAR     51  47  86 N3        30.37F
RATON          CLEAR     52  48  86 E7        30.33S
CLAYTON        CLEAR     62  55  77 W7        30.22S

$$
NMZ532>537-291100-
EASTCENTRAL PLAINS

CITY           SKY/WX    TMP DP  RH WIND       PRES   REMARKS
TUCUMCARI      MOCLDY    66  58  75 W7        30.17R
CANNON AFB     CLOUDY    67  59  77 NW12      30.16F
CLOVIS AIRPORT CLOUDY    66  61  82 W10       30.17S

$$
NMZ028-029-538-291100-
SOUTHEAST PLAINS

CITY           SKY/WX    TMP DP  RH WIND       PRES   REMARKS
ROSWELL        CLOUDY    68  62  81 VRB5      30.12R
ARTESIA        MOCLDY    66  66 100 NW8G15    30.13R
CARLSBAD       MOCLDY    71  64  78 NW6       30.10


$$



USA.gov is the U.S. government's official web portal to all federal, state and local government web resources and services.